Regional Weather Roundup
Issued by NWS

Home | Current Version | Previous Version | Graphics & Text | Print | Product List | Glossary On
Versions: 1 2 3 4 5 6 7 8 9 10 11 12 13 14 15 16 17 18 19 20 21 22 23 24 25 26 27 28 29 30 31 32 33 34 35 36 37 38 39 40 41 42 43 44 45 46 47 48 49 50
000
ASUS43 KMKX 271900
RWRWI

WISCONSIN REGIONAL WEATHER ROUNDUP
NATIONAL WEATHER SERVICE MILWAUKEE/SULLIVAN WI
200 PM CDT MON MAR 27 2017

NOTE: "FAIR" INDICATES FEW OR NO CLOUDS BELOW 12,000 FEET WITH NO
SIGNIFICANT WEATHER AND/OR OBSTRUCTIONS TO VISIBILITY.

WIZ001-002-006>008-014>016-023>028-272000-
NORTHWEST WISCONSIN

CITY           SKY/WX    TMP DP  RH WIND       PRES   REMARKS
SUPERIOR ARPT  CLOUDY    46  35  65 NE3       29.99S
ASHLAND        PTSUNNY   49  36  61 N6        29.98S
HAYWARD        CLOUDY    55  30  38 N7        29.94F
SIREN          CLOUDY    52  33  49 CALM      29.96F
CUMBERLAND     MOSUNNY   50  34  53 NE9       29.95F
RICE LAKE      MOSUNNY   48  36  63 CALM      29.98S
CHETEK         CLOUDY    46  38  73 NE5       29.96S
LADYSMITH      CLOUDY    46  37  71 N3        29.97S
EAU CLAIRE     NOT AVBL
MENOMONIE      CLOUDY    45  37  73 N3        29.98R
NEW RICHMOND   PTSUNNY   50  36  58 E5        29.97F
OSCEOLA        CLOUDY    53  36  52 N8        29.99F
$$

WIZ003>005-009-010-017-018-272000-
NORTH CENTRAL WISCONSIN

CITY           SKY/WX    TMP DP  RH WIND       PRES   REMARKS
MANITOWISH WTR CLOUDY    41  35  79 CALM      29.95S
ARBOR VITAE    PTSUNNY   43  35  73 NE5       29.94S
WOODRUFF       PTSUNNY   43  35  73 NE5       29.94S
RHINELANDER    CLOUDY    42  36  79 VRB3      29.95S
EAGLE RIVER    CLOUDY    42  33  70 NE3       29.94S
LAND O LAKES   CLOUDY    38  34  84 N5        29.97S WCI  35
PHILLIPS       CLOUDY    43  35  72 NE6       29.94F
TOMAHAWK       CLOUDY    40  36  85 CALM      29.95F
MEDFORD        CLOUDY    38  35  87 NE3       29.94S
MERRILL        CLOUDY    39  37  92 N5        29.96S
$$

WIZ029-030-035-036-043>047-272000-
CENTRAL WISCONSIN

CITY           SKY/WX    TMP DP  RH WIND       PRES   REMARKS
WAUSAU         CLOUDY    41  36  82 CALM      29.94S
MOSINEE        CLOUDY    39  37  93 VRB5      29.96S
MARSHFIELD     CLOUDY    41  36  82 VRB3      29.94S
STEVENS POINT  CLOUDY    39  38  97 CALM      29.96S
WAUPACA        CLOUDY    46  40  81 CALM      29.96S
WAUTOMA        CLOUDY    45  41  86 W3        29.95F
WISC RAPIDS    CLOUDY    44  40  85 N6        29.96S
CAMP DOUGLAS   NOT AVBL
$$

WIZ011>013-019>022-031-037>040-048>050-272000-
NORTHEAST WISCONSIN

CITY           SKY/WX    TMP DP  RH WIND       PRES   REMARKS
ANTIGO         CLOUDY    39  37  91 NE3       29.95S
SHAWANO        CLOUDY    43  37  80 CALM      29.96S
OCONTO         CLOUDY    38  34  83 E6        29.97S WCI  34
STURGEON BAY   CLOUDY    38  34  85 N6        29.94R WCI  33
GREEN BAY      CLOUDY    43  37  79 CALM      29.96S
MANITOWOC      CLOUDY    39  37  93 CALM      29.96F
APPLETON       CLOUDY    43  39  87 CALM      29.94S
CLINTONVILLE   CLOUDY    41  37  87 CALM      29.96S
OSHKOSH        CLOUDY    45  39  79 W3        29.94S
$$

WIZ032>034-041-042-053>061-272000-
SOUTHWEST WISCONSIN

CITY           SKY/WX    TMP DP  RH WIND       PRES   REMARKS
LA CROSSE      CLOUDY    48  41  76 CALM      29.96S
SPARTA         CLOUDY    46  40  80 CALM      29.96S
VIROQUA        CLOUDY    45  42  90 CALM      29.95S
BOSCOBEL       CLOUDY    49  42  77 N3        29.95F
PRAIRIE DU CHI CLOUDY    45  44  95 W5        29.95F FOG
PLATTEVILLE    CLOUDY    47  46  93 NE5       29.94F
$$

WIZ056-057-062-063-064-067-068-272000-
SOUTH CENTRAL WISCONSIN

CITY           SKY/WX    TMP DP  RH WIND       PRES   REMARKS
REEDSBURG      CLOUDY    44  44 100 CALM      29.95F FOG
BARABOO/DELLS  CLOUDY    44  41  90 CALM      29.95S FOG
LONE ROCK      NOT AVBL
MINERAL POINT  CLOUDY    46  45  93 N5        29.94S
MADISON        CLOUDY    47  41  80 N6        29.94S
MIDDLETON      CLOUDY    47  43  86 NE5       29.95S
WATERTOWN      CLOUDY    47  43  84 CALM      29.94R
MONROE         CLOUDY    46  43  87 CALM      29.93S
JANESVILLE     CLOUDY    50  45  81 NE3       29.83F
$$

WIZ051-052-058>065-066-070>072-272000-
SOUTHEAST WISCONSIN

CITY           SKY/WX    TMP DP  RH WIND       PRES   REMARKS
MILWAUKEE      CLOUDY    45  39  79 E7        29.94F
WAUKESHA       CLOUDY    45  39  81 CALM      29.95S
MILWAUKEE/TIMM CLOUDY    43  37  81 E5        29.95S
RACINE         CLOUDY    44  38  79 E7        29.96S
KENOSHA        CLOUDY    45  40  82 NE6       29.94F
FOND DU LAC    CLOUDY    47  39  74 N5        29.94S
SHEBOYGAN      CLOUDY    42  38  85 NE6       29.95R
WEST BEND      CLOUDY    45  41  87 CALM      29.94S
JUNEAU         CLOUDY    45  40  82 CALM      29.95S
$$

LSZ147-162-272000-
LAKE SUPERIOR

STATION/POSITION TIME  TEMP    WIND        PRES    WAVE
                       AIR SEA DIR/SP/G            HT/PER
                 (UTC) (F)     (DEG/KT/KT) (MB)    (FT/S)
DEVILS ISLAND    1800   34     240/  7/  8 1016.6R
PORT WING        1840   37      30/  3/  4 1015.9S
SAXON HARBOR     1840   37      50/  4/  5 1015.6S
$$

LMZ867-665-643>646-272000-
LAKE MICHIGAN

STATION/POSITION TIME  TEMP    WIND        PRES    WAVE
                       AIR SEA DIR/SP/G            HT/PER
                 (UTC) (F)     (DEG/KT/KT) (MB)    (FT/S)
CHAMBERS ISLAND  1840   38      30/  2/  4 1014.6R
NORTHPORT PIER   1840   36     320/  5/  7 1014.6F
SISTER BAY       1806   36     340/  8/  9   N/A
KEWAUNEE LAKESHO 1830   36     190/  1/  3 1014.2R
SHEBOYGAN LAKESH 1800   38     100/  3/  4 1014.5F
PORT WASHINGTON  1840   42     180/  4/  6 1015.2S
MILWAUKEE LAKESH 1840   40      90/  2/  2   N/A
KENOSHA   LAKESH 1800   41     110/  5/  6 1014.6
$$

TC  - TEMPERATURE IN CELSIUS
VSB - VISIBILITY IN STATUTE MILES
WCI - WIND CHILL INDEX
HX  - HEAT INDEX





USA.gov is the U.S. government's official web portal to all federal, state and local government web resources and services.